STARLINK-4687, 53784

Orbit data source: Space-Track

STARLINK-4687, 53784 is a payload satellite owned by SpaceX/Seattle (US) in LEO that was launched on Sun, 11 Sep 2022 UTC via an FALCON 9 launch vehicle from the Air Force Eastern Test Range (AFETR). Payload-class satellites include a variety of spacecraft equipped with specific instruments for various scientific and technological missions. These include communications satellites like Starlink; space stations such as the ISS; scientific satellites like the Hubble; Earth observation satellites from companies like Planet Labs, Umbra, and HawkEye 360; GPS; miniature CubeSats for education and research; and military/defense satellites.

Loading next visibility...
Identifier
53784, 2022-111M
Orbit
LEO
Country
Flag of USUS
Related business
Manufacturer
SpaceX/Seattle
Mission
Operational Commercial Communications
Bus & Motor
STARLINK, Unknown motor
Mass
305 kg wet, ~290 kg dry
Launch date (UTC)
2022-09-11 (3 years ago)
Launch vehicle
FALCON 9
Launch site
Air Force Eastern Test Range (AFETR)
Object type
Payload
Rocket body
Debris
Shape & HBR
Box + 1 Pan, 10.1 m
Radar Cross Section
13.562 m², Large (>1 m²)

Expand to show TLE details & history
Last TLE update: 5 hours ago

TLE from 5 hours ago
0 STARLINK-4687
1 53784U 22111M   26035.49024718 -.00004493  00000-0 -26438-3 0  9993
2 53784  53.2180  63.1911 0001893 113.9172 246.2019 15.08835317188680
Epoch: 2026-02-04T11:45Z
TLE epoch observation values (Epoch: 2026-02-04T11:45:57.356Z)
Latitude
0.00002°
Longitude
112.04605°
Altitude
541.184 km
Speed
7.593 km/s
True Right ascension
04h 12m 45s
True Declination
0° 00' 00"
Sunlit
Object was in daylight at epoch
Visualization orbit readout
Latitude
Unknown
Longitude
Unknown
Altitude
Unknown
Speed
Unknown
Apparent Right ascension
Unknown
Apparent Declination
Unknown
Sunlit
N/A
Visualization observer readout
Local Sidereal Time
18:44:30
Azimuth
Unknown
Elevation
Unknown
Doppler factor
Unknown
Orbital elements
Apogee altitude
541.312 km
Perigee altitude
538.693 km
Semi-major axis
6,918.14 km
Eccentricity
0.00019
Inclination
53.218°
RAAN
63.1911°
Arg. of periapsis
113.9172°
True anomaly
246.18205°
Mean anomaly
246.2019°
Eccentric anomaly
246.19198°
Mean motion
3.77189 °/min
Orbital period
95.44 mins
BSTAR
-0.00026438
Loading maneuver chart data...
Computing Atmospheric mass density...
Loading historical data...
Loading historical data...
Loading historical data...
Loading historical data...
Loading historical data...
Loading historical data...
Loading historical data...

Documentation

Showing up to 5 results
|